EFIV Weather Reports


Display with metric or nautical units.
time (UTC)temp
F
wind
direction
speed
MPH
gust
MPH
rain 1hr
in
rain 24hr
in
rain mn
in
humidity
%
barometer
mb
20260509220742 41 249 2.0 3.0 0.00 0.00 0.00 73 1017.5
20260509214741 41 269 2.0 4.0 0.00 0.00 0.00 74 1017.5
20260509212742 41 198 4.0 8.0 0.00 0.00 0.00 72 1017.7
20260509210742 42 13 1.0 2.0 0.00 0.00 0.00 67 1017.8
20260509204742 44 52 2.0 3.0 0.00 0.00 0.00 59 1017.8
20260509202742 42 294 2.0 3.0 0.00 0.00 0.00 71 1018.2
20260509200742 42 50 4.0 6.0 0.00 0.00 0.00 70 1018.2
20260509194741 42 55 4.0 6.0 0.00 0.00 0.00 71 1018.4
20260509192743 45 111 4.0 9.0 0.00 0.00 0.00 61 1018.4
20260509190740 44 83 4.0 7.0 0.00 0.00 0.00 64 1018.7
20260509184741 45 84 4.0 7.0 0.00 0.00 0.00 64 1018.9
20260509182742 45 109 5.0 7.0 0.00 0.00 0.00 62 1019.0
20260509180742 45 87 6.0 11.0 0.00 0.00 0.00 62 1019.2
20260509174741 46 96 7.0 12.0 0.00 0.00 0.00 62 1019.3
20260509172741 46 110 9.0 14.0 0.00 0.00 0.00 61 1019.5
20260509170742 46 110 9.0 13.0 0.00 0.00 0.00 62 1019.8
20260509164743 46 106 7.0 13.0 0.00 0.00 0.00 61 1020.2
20260509162741 45 120 7.0 10.0 0.00 0.00 0.00 63 1020.6
20260509160741 45 150 6.0 10.0 0.00 0.00 0.00 63 1020.8
20260509154742 46 161 9.0 14.0 0.00 0.00 0.00 63 1021.1
20260509152741 47 185 11.0 17.0 0.00 0.00 0.00 55 1021.2
20260509150741 48 204 13.0 21.0 0.00 0.00 0.00 51 1021.5
20260509144741 49 183 11.0 18.0 0.00 0.00 0.00 46 1021.6
20260509142741 49 156 8.0 13.0 0.00 0.00 0.00 44 1021.9
20260509140740 49 189 9.0 15.0 0.00 0.00 0.00 44 1022.1
20260509134741 49 195 9.0 15.0 0.00 0.00 0.00 45 1022.4
20260509124740 50 166 11.0 19.0 0.00 0.00 0.00 37 1023.0
20260509122741 50 170 11.0 18.0 0.00 0.00 0.00 36 1023.4
20260509120739 50 172 11.0 20.0 0.00 0.00 0.00 34 1023.4
20260509114740 49 180 10.0 15.0 0.00 0.00 0.00 30 1023.8
20260509112740 51 157 10.0 16.0 0.00 0.00 0.00 30 1023.9
20260509110740 49 157 8.0 13.0 0.00 0.00 0.00 31 1024.2
20260509104739 49 148 10.0 16.0 0.00 0.00 0.00 32 1024.4
20260509102740 49 168 10.0 15.0 0.00 0.00 0.00 32 1024.5
20260509100739 48 186 8.0 13.0 0.00 0.00 0.00 33 1024.8
20260509094739 48 161 5.0 14.0 0.00 0.00 0.00 32 1025.0
20260509092740 47 179 8.0 14.0 0.00 0.00 0.00 34 1025.1
20260509090740 49 110 4.0 7.0 0.00 0.00 0.00 35 1025.2
20260509084739 47 144 4.0 8.0 0.00 0.00 0.00 36 1025.5
20260509082739 46 137 5.0 9.0 0.00 0.00 0.00 39 1025.6
20260509080739 46 162 4.0 7.0 0.00 0.00 0.00 39 1025.8
20260509074739 46 146 4.0 8.0 0.00 0.00 0.00 40 1026.0
20260509072739 45 175 5.0 10.0 0.00 0.00 0.00 41 1026.2
20260509070739 43 142 5.0 9.0 0.00 0.00 0.00 45 1026.3
20260509064740 42 98 7.0 12.0 0.00 0.00 0.00 45 1026.6
20260509062739 40 85 3.0 8.0 0.00 0.00 0.00 54 1026.7
20260509060739 40 117 2.0 3.0 0.00 0.00 0.00 55 1026.9
20260509054739 38 360 1.0 6.0 0.00 0.00 0.00 58 1027.2
20260509052739 38 143 1.0 3.0 0.00 0.00 0.00 58 1027.2
20260509050740 36 94 1.0 3.0 0.00 0.00 0.00 62 1027.4
20260509044739 34 115 1.0 2.0 0.00 0.00 0.00 66 1027.5
20260509042738 34 146 1.0 2.0 0.00 0.00 0.00 64 1027.6
20260509040737 31 204 1.0 2.0 0.00 0.00 0.00 72 1027.8
20260509034738 29 246 1.0 2.0 0.00 0.00 0.00 77 1027.9
20260509032737 28 289 1.0 2.0 0.00 0.00 0.00 79 1028.0
20260509030737 26 68 1.0 2.0 0.00 0.00 0.00 83 1028.1
20260509024738 26 254 2.0 3.0 0.00 0.00 0.00 87 1028.1
20260509022739 24 281 2.0 2.0 0.00 0.00 0.00 90 1028.2
20260509020739 24 173 1.0 2.0 0.00 0.00 0.00 88 1028.1
20260509014738 24 264 1.0 1.0 0.00 0.00 0.00 88 1028.1
20260509012738 24 236 1.0 2.0 0.00 0.00 0.00 90 1028.1
20260509010737 24 245 3.0 4.0 0.00 0.00 0.00 90 1028.0
20260509004738 25 229 3.0 4.0 0.00 0.00 0.00 90 1028.0
20260509002738 24 244 2.0 2.0 0.00 0.00 0.00 89 1027.9
20260509000739 26 258 2.0 4.0 0.00 0.00 0.00 88 1027.6
20260508234739 26 249 3.0 4.0 0.00 0.00 0.00 90 1027.7
20260508232738 27 229 3.0 4.0 0.00 0.00 0.00 85 1027.4
20260508230738 26 308 1.0 2.0 0.00 0.00 0.00 90 1027.4
20260508224738 26 53 1.0 1.0 0.00 0.00 0.00 86 1027.3
20260508222738 27 101 2.0 3.0 0.00 0.00 0.00 86 1027.2